Regional Weather Roundup
Issued by NWS

Home | Current Version | Previous Version | Text Only | Print | Product List | Glossary Off
Versions: 1 2 3 4 5 6 7 8 9 10 11 12 13 14 15 16 17 18 19 20 21 22 23 24 25 26 27 28 29 30 31 32 33 34 35 36 37 38 39 40 41 42 43 44 45 46 47 48 49 50

000
ASUS43 KFSD 220910
RWRSD

WEATHER ROUNDUP FOR SOUTH DAKOTA
NATIONAL WEATHER SERVICE SIOUX FALLS SD
400 AM CDT WED OCT 22 2014

NOTE: "FAIR" INDICATES FEW OR NO CLOUDS BELOW 12,000 FEET WITH NO
SIGNIFICANT WEATHER AND/OR OBSTRUCTIONS TO VISIBILITY.


SDZ001>005-009-010-012>017-221000-
NORTHWEST AND NORTH CENTRAL SOUTH DAKOTA

CITY           SKY/WX    TMP DP  RH WIND       PRES   REMARKS
BUFFALO          N/A     51  39  63 W21       29.76R
FAITH            N/A     57  44  62 W12       29.80R
MOBRIDGE       MOCLDY    62  52  69 SE9       29.72R
$$

SDZ012>016-024>037-041>051-057-063-072>074-221000-
SOUTHWEST AND SOUTH CENTRAL SOUTH DAKOTA

CITY           SKY/WX    TMP DP  RH WIND       PRES   REMARKS
RAPID CTY ARPT CLOUDY    59  39  47 N20G29    29.86R
PIERRE         PTCLDY    61  53  75 SE13      29.75F
CUSTER         CLOUDY    53  36  52 SW6       29.94R
ELLSWORTH AFB  PTCLDY    58  40  51 N18G25    29.87R
PHILIP         CLOUDY    63  48  58 W6        29.77R
PINE RIDGE     CLOUDY    62  46  55 W15       29.89R
SPEARFISH      FAIR      54  34  47 W12G17    29.91S
WINNER         FAIR      64  54  69 S22       29.81R
$$

SDZ004>011-016>023-039-040-221000-
NORTHEAST SOUTH DAKOTA

CITY           SKY/WX    TMP DP  RH WIND       PRES   REMARKS
ABERDEEN       CLEAR     60  39  45 S21G31    29.82F
WATERTOWN      CLEAR     53  42  66 S18G28    29.93F
SISSETON         N/A     51  43  74 S17       29.90F
$$

SDZ017-020-022-023-036>040-048>070-221000-
SOUTHEAST SOUTH DAKOTA

CITY           SKY/WX    TMP DP  RH WIND       PRES   REMARKS
SIOUX FALLS    CLEAR     53  44  71 SE14G23   30.00F
HURON          CLEAR     56  39  53 S15G26    29.87S
CHAMBERLAIN    CLEAR     59  48  66 SE12      29.83S
MITCHELL       CLEAR     57  41  55 SE18      29.90F
YANKTON        CLEAR     55  39  54 SE16G24   29.98S
$$

ABBREVIATIONS USED IN REMARKS
   TC - TEMPERATURE IN CELSIUS
  WCI - WIND CHILL INDEX
   HX - HEAT INDEX
  VSB - VISIBILITY




USA.gov is the U.S. government's official web portal to all federal, state and local government web resources and services.